Appleton, MN

5:08 PM CDT on June 23, 2017 (GMT -0500)
Appleton Municipal

Weather History for KAQP - October, 2011

Change the Weather History Date:

Wednesday, October 12, 2011

  Actual Average Record
Temperature  
Mean Temperature 58 °F -  
Max Temperature 64 °F 57 °F 71 °F (1997)
Min Temperature 51 °F 35 °F 17 °F (2012)
Degree Days  
Heating Degree Days 6    
Growing Degree Days 8 (Base 50)    
Moisture  
Dew Point 54 °F    
Average Humidity 85    
Maximum Humidity 94    
Minimum Humidity 68    
Precipitation  
Precipitation 0.16 in - - ()
Sea Level Pressure  
Sea Level Pressure 29.70 in    
Wind  
Wind Speed 5 mph (South)    
Max Wind Speed 9 mph    
Max Gust Speed -    
Visibility 10 miles    
Events Rain , Thunderstorm    
Averages and records for this station are not official NWS values.
T = Trace of Precipitation, MM = Missing Value Source: NWS Daily Summary

Daily Weather History Graph

Daily Weather History Graph

Search for Another Location

Airport or City:

Trip Planner

Search our weather history database for the weather conditions in past years. The results will help you decide how hot, cold, wet, or windy it might be!

Date:

Astronomy

Oct. 12, 2011 Rise Set
Actual Time 7:35 AM CDT 6:44 PM CDT
Civil Twilight 7:06 AM CDT 7:14 PM CDT
Nautical Twilight 6:32 AM CDT 7:48 PM CDT
Astronomical Twilight 5:57 AM CDT 8:22 PM CDT
Moon 6:41 PM CDT (10/12) 8:16 AM CDT (10/12)
Length of Visible Light 12h 07m
Length of Day
11h 08m
Full, 100% of the Moon is Illuminated
Oct 12
Full
Oct 19
Last Quarter
Oct 26
New
Nov 2
First Quarter
Nov 10
Full

Hourly Weather History & Observations

Time (CDT) Temp. Dew Point Humidity Pressure Visibility Wind Dir Wind Speed Gust Speed Precip Events Conditions
12:14 AM 60.8 °F 51.8 °F 72% 29.69 in 10.0 mi ESE 8.1 mph - N/A Rain Light Rain
12:34 AM 60.8 °F 53.6 °F 77% 29.68 in 10.0 mi ESE 6.9 mph - N/A Rain , Thunderstorm Light Thunderstorms and Rain
12:54 AM 59.0 °F 53.6 °F 82% 29.68 in 10.0 mi East 5.8 mph - N/A Thunderstorm Thunderstorm
1:14 AM 57.2 °F 53.6 °F 88% 29.68 in 10.0 mi ESE 5.8 mph - N/A Thunderstorm Mostly Cloudy
1:35 AM 57.2 °F 51.8 °F 82% 29.68 in 10.0 mi ESE 4.6 mph - N/A   Scattered Clouds
1:55 AM 57.2 °F 51.8 °F 82% 29.68 in 10.0 mi SE 3.5 mph - N/A   Clear
2:35 AM 57.2 °F 51.8 °F 82% 29.68 in 10.0 mi Calm Calm - N/A   Clear
3:15 AM 55.4 °F 51.8 °F 88% 29.69 in 10.0 mi South 3.5 mph - N/A   Scattered Clouds
3:35 AM 57.2 °F 51.8 °F 82% 29.71 in 10.0 mi South 8.1 mph - N/A   Mostly Cloudy
3:55 AM 57.2 °F 51.8 °F 82% 29.70 in 10.0 mi South 5.8 mph - 0.01 in Rain Light Rain
4:14 AM 57.2 °F 53.6 °F 88% 29.69 in 10.0 mi South 6.9 mph - N/A Rain Light Rain
4:35 AM 57.2 °F 53.6 °F 88% 29.68 in 10.0 mi SSW 4.6 mph - N/A Rain Rain
4:55 AM 57.2 °F 53.6 °F 88% 29.69 in 10.0 mi SSW 8.1 mph - N/A Rain Light Rain
5:15 AM 57.2 °F 53.6 °F 88% 29.69 in 10.0 mi SSE 5.8 mph - 0.01 in Rain Light Rain
5:35 AM 57.2 °F 53.6 °F 88% 29.69 in 10.0 mi South 5.8 mph - 0.01 in Rain Light Rain
5:55 AM 57.2 °F 53.6 °F 88% 29.69 in 10.0 mi South 4.6 mph - 0.01 in Rain Light Rain
6:15 AM 57.2 °F 53.6 °F 88% 29.69 in 10.0 mi South 4.6 mph - N/A   Mostly Cloudy
6:35 AM 57.2 °F 53.6 °F 88% 29.69 in 10.0 mi South 6.9 mph - N/A Rain Light Rain
6:55 AM 57.2 °F 53.6 °F 88% 29.70 in 10.0 mi South 4.6 mph - N/A   Overcast
7:15 AM 57.2 °F 53.6 °F 88% 29.70 in 10.0 mi South 9.2 mph - 0.04 in Rain Rain
7:34 AM 57.2 °F 53.6 °F 88% 29.70 in 10.0 mi South 5.8 mph - 0.05 in Rain Rain
7:54 AM 57.2 °F 53.6 °F 88% 29.71 in 10.0 mi South 4.6 mph - 0.07 in Rain Rain
8:14 AM 55.4 °F 53.6 °F 94% 29.71 in 10.0 mi Calm Calm - 0.02 in Rain Rain
8:35 AM 57.2 °F 55.4 °F 94% 29.72 in 10.0 mi Calm Calm - 0.03 in Rain Light Rain
8:54 AM 57.2 °F 55.4 °F 94% 29.71 in 10.0 mi Calm Calm - 0.03 in   Mostly Cloudy
9:14 AM 57.2 °F 55.4 °F 94% 29.71 in 10.0 mi ESE 3.5 mph - N/A   Scattered Clouds
9:35 AM 57.2 °F 55.4 °F 94% 29.71 in 10.0 mi Calm Calm - N/A   Clear
10:14 AM 57.2 °F 55.4 °F 94% 29.71 in 10.0 mi Calm Calm - N/A Rain Light Rain
10:35 AM 57.2 °F 55.4 °F 94% 29.72 in 10.0 mi Calm Calm - N/A Rain Light Rain
10:55 AM 57.2 °F 55.4 °F 94% 29.72 in 10.0 mi Calm Calm - N/A Rain Light Rain
11:15 AM 57.2 °F 55.4 °F 94% 29.73 in 10.0 mi SE 3.5 mph - N/A Rain Light Rain
11:35 AM 57.2 °F 55.4 °F 94% 29.72 in 10.0 mi SSE 4.6 mph - 0.02 in Rain Rain
11:54 AM 57.2 °F 55.4 °F 94% 29.71 in 10.0 mi SSE 6.9 mph - 0.04 in Rain Light Rain
12:15 PM 57.2 °F 55.4 °F 94% 29.71 in 10.0 mi South 3.5 mph - N/A   Scattered Clouds
12:35 PM 57.2 °F 55.4 °F 94% 29.71 in 10.0 mi South 4.6 mph - N/A   Clear
12:55 PM 59.0 °F 57.2 °F 94% 29.71 in 10.0 mi South 3.5 mph - N/A   Clear
1:14 PM 60.8 °F 57.2 °F 88% 29.71 in 10.0 mi South 3.5 mph - N/A   Clear
1:35 PM 60.8 °F 57.2 °F 88% 29.70 in 10.0 mi South 3.5 mph - N/A   Clear
1:55 PM 62.6 °F 59.0 °F 88% 29.69 in 10.0 mi South 5.8 mph - N/A   Clear
2:14 PM 64.4 °F 59.0 °F 83% 29.69 in 10.0 mi SSE 5.8 mph - N/A   Scattered Clouds
2:35 PM 64.4 °F 55.4 °F 73% 29.69 in 10.0 mi South 6.9 mph - N/A   Scattered Clouds
2:55 PM 64.4 °F 53.6 °F 68% 29.68 in 10.0 mi SSE 5.8 mph - N/A   Mostly Cloudy
3:14 PM 62.6 °F 53.6 °F 72% 29.68 in 10.0 mi South 8.1 mph - N/A Thunderstorm Overcast
3:34 PM 60.8 °F 51.8 °F 72% 29.69 in 10.0 mi SE 3.5 mph - N/A   Light Drizzle
4:14 PM 62.6 °F 53.6 °F 72% 29.69 in 10.0 mi SSE 5.8 mph - N/A Thunderstorm Scattered Clouds
4:34 PM 62.6 °F 55.4 °F 77% 29.69 in 10.0 mi SSE 4.6 mph - N/A   Clear
4:55 PM 62.6 °F 55.4 °F 77% 29.69 in 10.0 mi South 4.6 mph - N/A   Scattered Clouds
5:15 PM 62.6 °F 55.4 °F 77% 29.69 in 10.0 mi South 3.5 mph - N/A   Scattered Clouds
5:35 PM 62.6 °F 53.6 °F 72% 29.69 in 10.0 mi South 3.5 mph - N/A   Mostly Cloudy
5:54 PM 62.6 °F 53.6 °F 72% 29.69 in 10.0 mi SSE 5.8 mph - N/A   Scattered Clouds
6:14 PM 60.8 °F 53.6 °F 77% 29.70 in 10.0 mi SSW 3.5 mph - N/A   Clear
6:34 PM 60.8 °F 53.6 °F 77% 29.70 in 10.0 mi SSW 3.5 mph - N/A   Clear
6:55 PM 59.0 °F 53.6 °F 82% 29.71 in 10.0 mi Calm Calm - N/A   Clear
7:14 PM 57.2 °F 51.8 °F 82% 29.71 in 10.0 mi Calm Calm - N/A   Clear
7:34 PM 57.2 °F 51.8 °F 82% 29.71 in 10.0 mi SW 4.6 mph - N/A   Clear
7:55 PM 57.2 °F 51.8 °F 82% 29.71 in 10.0 mi SSW 5.8 mph - N/A   Clear
8:14 PM 57.2 °F 53.6 °F 88% 29.71 in 10.0 mi SW 4.6 mph - N/A   Scattered Clouds
8:34 PM 55.4 °F 51.8 °F 88% 29.71 in 10.0 mi WSW 5.8 mph - N/A   Scattered Clouds
8:54 PM 53.6 °F 51.8 °F 94% 29.71 in 10.0 mi West 6.9 mph - N/A   Clear
9:14 PM 53.6 °F 51.8 °F 94% 29.71 in 10.0 mi West 6.9 mph - N/A   Clear
9:35 PM 53.6 °F 51.8 °F 94% 29.71 in 10.0 mi West 6.9 mph - N/A   Clear
9:54 PM 51.8 °F 48.2 °F 88% 29.71 in 10.0 mi West 5.8 mph - N/A   Clear
10:14 PM 53.6 °F 48.2 °F 82% 29.71 in 10.0 mi West 6.9 mph - N/A   Clear
10:34 PM 51.8 °F 48.2 °F 88% 29.71 in 10.0 mi WNW 8.1 mph - N/A   Clear
10:54 PM 51.8 °F 48.2 °F 88% 29.71 in 10.0 mi WNW 6.9 mph - N/A   Clear
11:15 PM 51.8 °F 46.4 °F 82% 29.71 in 10.0 mi WNW 8.1 mph - N/A   Clear
11:34 PM 51.8 °F 46.4 °F 82% 29.71 in 10.0 mi WNW 6.9 mph - N/A   Clear
11:54 PM 51.8 °F 46.4 °F 82% 29.71 in 10.0 mi WNW 6.9 mph - N/A   Clear